When you browse on this site, cookies collect data to enhance your experience and personalize the content and advertising you see.
Visit our Privacy Policy to learn more. By continuing to use the site, you agree to this use of cookies and data.
  • In Hungary
  • List of Countries
  • For 7 days
  • Water Temperature
  • Weather Map
  • News
  • Weather Widgets
  • user-avatar
    Login

    Hourly Weather Berezhok

    Today, 25 January, Saturday

    Time Temperature Precipitation Wind Pressure Humidity
    00:00 -18°C° 0 mm 4 mps 718 mmHg 89%
    01:00 -18°C° 0 mm 4 mps 718 mmHg 89%
    02:00 -18°C° 0 mm 4 mps 718 mmHg 89%
    03:00 -18°C° 0 mm 4 mps 718 mmHg 89%
    04:00 -18°C° 0 mm 4 mps 718 mmHg 90%
    05:00 -18°C° 0 mm 4 mps 718 mmHg 90%
    06:00 -19°C° 0 mm 4 mps 717 mmHg 91%
    07:00 -19°C° 0 mm 4 mps 717 mmHg 92%
    08:00 -19°C° 0 mm 4 mps 717 mmHg 90%
    09:00 -19°C° 0 mm 4 mps 717 mmHg 89%
    10:00 -18°C° 0 mm 4 mps 717 mmHg 87%
    11:00 -17°C° 0 mm 4 mps 717 mmHg 86%
    12:00 -16°C° 0 mm 4 mps 717 mmHg 86%
    13:00 -15°C° 0 mm 4 mps 716 mmHg 85%
    14:00 -16°C° 0 mm 4 mps 716 mmHg 86%
    15:00 -15°C° 0 mm 3 mps 716 mmHg 87%
    16:00 -16°C° 0 mm 3 mps 715 mmHg 88%
    17:00 -16°C° 0 mm 3 mps 715 mmHg 88%
    18:00 -15°C° 0 mm 3 mps 715 mmHg 88%
    19:00 -15°C° 0 mm 3 mps 714 mmHg 89%
    20:00 -15°C° 0 mm 3 mps 714 mmHg 90%
    21:00 -14°C° 0 mm 3 mps 714 mmHg 90%
    22:00 -13°C° 0 mm 3 mps 713 mmHg 91%
    23:00 -13°C° 0 mm 3 mps 713 mmHg 91%

    Tomorrow, 26 January, Sunday

    Time Temperature Precipitation Wind Pressure Humidity
    00:00 -13°C° 0 mm 3 mps 713 mmHg 92%
    01:00 -12°C° 0 mm 3 mps 713 mmHg 92%
    02:00 -12°C° 0 mm 3 mps 713 mmHg 92%
    03:00 -12°C° 0 mm 3 mps 713 mmHg 93%
    04:00 -13°C° 0 mm 3 mps 712 mmHg 93%
    05:00 -12°C° 0 mm 2 mps 712 mmHg 94%
    06:00 -12°C° 0 mm 2 mps 712 mmHg 95%
    07:00 -13°C° 0 mm 2 mps 712 mmHg 95%
    08:00 -10°C° 0 mm 1 mps 712 mmHg 95%
    09:00 -9°C° 0 mm 1 mps 712 mmHg 94%
    10:00 -9°C° 0 mm 1 mps 712 mmHg 94%
    11:00 -8°C° 0 mm 1 mps 713 mmHg 92%
    12:00 -8°C° 0 mm 2 mps 713 mmHg 90%
    13:00 -7°C° 0 mm 2 mps 713 mmHg 88%
    14:00 -8°C° 0 mm 2 mps 713 mmHg 90%
    15:00 -9°C° 0 mm 2 mps 713 mmHg 92%
    16:00 -10°C° 0 mm 2 mps 714 mmHg 95%
    17:00 -10°C° 0 mm 2 mps 714 mmHg 95%
    18:00 -12°C° 0 mm 2 mps 714 mmHg 95%
    19:00 -14°C° 0 mm 3 mps 714 mmHg 95%
    20:00 -14°C° 0 mm 3 mps 715 mmHg 94%
    21:00 -14°C° 0 mm 3 mps 715 mmHg 94%
    22:00 -14°C° 0 mm 3 mps 715 mmHg 93%
    23:00 -15°C° 0 mm 3 mps 716 mmHg 93%

    Day after tomorrow, 27 January, Monday

    Time Temperature Precipitation Wind Pressure Humidity
    00:00 -15°C° 0 mm 3 mps 716 mmHg 93%
    01:00 -15°C° 0 mm 3 mps 716 mmHg 94%
    02:00 -16°C° 0 mm 3 mps 716 mmHg 93%
    03:00 -16°C° 0 mm 3 mps 716 mmHg 93%
    04:00 -17°C° 0 mm 3 mps 717 mmHg 93%
    05:00 -17°C° 0 mm 3 mps 717 mmHg 93%
    06:00 -18°C° 0 mm 3 mps 717 mmHg 92%
    07:00 -18°C° 0 mm 3 mps 718 mmHg 92%
    08:00 -19°C° 0 mm 4 mps 718 mmHg 91%
    09:00 -20°C° 0 mm 4 mps 718 mmHg 90%
    10:00 -20°C° 0 mm 4 mps 719 mmHg 90%
    11:00 -19°C° 0 mm 4 mps 719 mmHg 89%
    12:00 -19°C° 0 mm 4 mps 719 mmHg 88%
    13:00 -19°C° 0 mm 4 mps 719 mmHg 87%
    14:00 -19°C° 0 mm 4 mps 720 mmHg 88%
    15:00 -20°C° 0 mm 4 mps 720 mmHg 89%
    16:00 -19°C° 0 mm 3 mps 720 mmHg 91%
    17:00 -19°C° 0 mm 3 mps 721 mmHg 91%
    18:00 -22°C° 0 mm 4 mps 721 mmHg 91%
    19:00 -22°C° 0 mm 4 mps 721 mmHg 92%
    20:00 -23°C° 0 mm 4 mps 721 mmHg 91%
    21:00 -23°C° 0 mm 4 mps 722 mmHg 91%
    22:00 -23°C° 0 mm 4 mps 722 mmHg 91%
    23:00 -24°C° 0 mm 4 mps 722 mmHg 92%

    28 January, Tuesday

    Time Temperature Precipitation Wind Pressure Humidity
    00:00 -24°C° 0 mm 3 mps 723 mmHg 94%
    01:00 -25°C° 0 mm 3 mps 723 mmHg 95%
    02:00 -26°C° 0 mm 4 mps 723 mmHg 95%
    03:00 -27°C° 0 mm 4 mps 724 mmHg 94%
    04:00 -27°C° 0 mm 4 mps 725 mmHg 94%
    05:00 -29°C° 0 mm 4 mps 725 mmHg 94%
    06:00 -29°C° 0 mm 4 mps 726 mmHg 94%
    07:00 -30°C° 0 mm 4 mps 727 mmHg 94%
    08:00 -30°C° 0 mm 4 mps 728 mmHg 94%
    09:00 -31°C° 0 mm 5 mps 728 mmHg 93%
    10:00 -31°C° 0 mm 5 mps 729 mmHg 92%
    11:00 -29°C° 0 mm 5 mps 730 mmHg 91%
    12:00 -29°C° 0 mm 5 mps 731 mmHg 90%
    13:00 -28°C° 0 mm 5 mps 732 mmHg 89%
    14:00 -28°C° 0 mm 5 mps 732 mmHg 89%
    15:00 -29°C° 0 mm 5 mps 733 mmHg 90%
    16:00 -29°C° 0 mm 5 mps 733 mmHg 91%
    17:00 -31°C° 0 mm 5 mps 734 mmHg 91%
    18:00 -31°C° 0 mm 5 mps 735 mmHg 92%
    19:00 -32°C° 0 mm 5 mps 736 mmHg 93%
    20:00 -32°C° 0 mm 5 mps 736 mmHg 93%
    21:00 -33°C° 0 mm 5 mps 737 mmHg 93%
    22:00 -33°C° 0 mm 5 mps 737 mmHg 94%
    23:00 -33°C° 0 mm 5 mps 738 mmHg 94%

    29 January, Wednesday

    Time Temperature Precipitation Wind Pressure Humidity
    00:00 -33°C° 0 mm 5 mps 738 mmHg 94%
    01:00 -34°C° 0 mm 5 mps 739 mmHg 94%
    02:00 -34°C° 0 mm 5 mps 739 mmHg 94%
    03:00 -33°C° 0 mm 4 mps 739 mmHg 94%
    04:00 -33°C° 0 mm 4 mps 740 mmHg 94%
    05:00 -33°C° 0 mm 4 mps 740 mmHg 94%
    06:00 -32°C° 0 mm 3 mps 740 mmHg 94%
    07:00 -32°C° 0 mm 3 mps 741 mmHg 94%
    08:00 -30°C° 0 mm 3 mps 741 mmHg 93%
    09:00 -27°C° 0 mm 2 mps 741 mmHg 91%
    10:00 -26°C° 0 mm 2 mps 741 mmHg 89%
    11:00 -24°C° 0 mm 2 mps 742 mmHg 85%
    12:00 -19°C° 0 mm 1 mps 742 mmHg 81%
    13:00 -17°C° 0 mm 1 mps 742 mmHg 77%
    14:00 -17°C° 0 mm 1 mps 742 mmHg 80%
    15:00 -17°C° 0 mm 1 mps 742 mmHg 83%
    16:00 -17°C° 0 mm 1 mps 742 mmHg 85%
    17:00 -17°C° 0 mm 1 mps 742 mmHg 86%
    18:00 -17°C° 0 mm 1 mps 742 mmHg 86%
    19:00 -17°C° 0 mm 1 mps 742 mmHg 86%
    20:00 -17°C° 0 mm 1 mps 742 mmHg 85%
    21:00 -17°C° 0 mm 1 mps 741 mmHg 84%
    22:00 -17°C° 0 mm 1 mps 741 mmHg 83%
    23:00 -16°C° 0 mm 1 mps 741 mmHg 83%

    30 January, Thursday

    Time Temperature Precipitation Wind Pressure Humidity
    00:00 -16°C° 0 mm 1 mps 741 mmHg 84%
    01:00 -16°C° 0 mm 1 mps 741 mmHg 84%
    02:00 -16°C° 0 mm 1 mps 741 mmHg 84%
    03:00 -16°C° 0 mm 1 mps 741 mmHg 85%
    04:00 -16°C° 0 mm 1 mps 740 mmHg 85%
    05:00 -16°C° 0 mm 1 mps 740 mmHg 86%
    06:00 -15°C° 0 mm 1 mps 740 mmHg 87%
    07:00 -15°C° 0 mm 1 mps 740 mmHg 88%
    08:00 -15°C° 0 mm 1 mps 740 mmHg 88%
    09:00 -15°C° 0 mm 1 mps 740 mmHg 87%
    10:00 -14°C° 0 mm 1 mps 740 mmHg 87%
    11:00 -15°C° 0 mm 2 mps 740 mmHg 87%
    12:00 -14°C° 0 mm 2 mps 740 mmHg 87%
    13:00 -14°C° 0 mm 2 mps 739 mmHg 88%
    14:00 -14°C° 0 mm 2 mps 739 mmHg 90%
    15:00 -13°C° 0 mm 2 mps 739 mmHg 92%
    16:00 -13°C° 0 mm 2 mps 739 mmHg 93%
    17:00 -14°C° 0.1 mm 2 mps 739 mmHg 94%
    18:00 -14°C° 0.1 mm 2 mps 739 mmHg 94%
    19:00 -14°C° 0.1 mm 2 mps 738 mmHg 95%
    20:00 -13°C° 0.1 mm 2 mps 738 mmHg 95%
    21:00 -13°C° 0.1 mm 2 mps 738 mmHg 95%
    22:00 -13°C° 0.1 mm 2 mps 737 mmHg 95%
    23:00 -12°C° 0.1 mm 2 mps 737 mmHg 95%
    Show more